This is the latest recevied weather packets stored in our database for station/object N5YHM-13. If no packets are shown the sender has not sent any weather packets the latest 10 day(s).
| Time | Temp. | Humidity | Pressure | Rain* | Wind** | Luminosity | Snow |
|---|---|---|---|---|---|---|---|
| 1787446310 | 30° C | 92% | 1015.9 hPa | 0 mm | - | 0 W/m² | - |
| 1787446006 | 30° C | 91% | 1015.9 hPa | 0 mm | - | 0 W/m² | - |
| 1787445702 | 30° C | 90% | 1015.8 hPa | 0 mm | - | 0 W/m² | - |
| 1787445398 | 30° C | 90% | 1016.2 hPa | 0 mm | - | 0 W/m² | - |
| 1787445093 | 30.56° C | 90% | 1016.1 hPa | 0 mm | - | 0 W/m² | - |
| 1787444789 | 30.56° C | 89% | 1016 hPa | 0 mm | - | 1 W/m² | - |
| 1787444486 | 30.56° C | 89% | 1016.1 hPa | 0 mm | - | 1 W/m² | - |
| 1787444185 | 31.11° C | 88% | 1015.7 hPa | 0 mm | - | 1 W/m² | - |
| 1787443880 | 31.11° C | 86% | 1015.9 hPa | 0 mm | - | 1 W/m² | - |
| 1787443579 | 31.11° C | 86% | 1015.9 hPa | 0 mm | - | 2 W/m² | - |
| 1787443274 | 31.11° C | 84% | 1015.9 hPa | 0 mm | - | 2 W/m² | - |
| 1787442974 | 31.67° C | 83% | 1015.9 hPa | 0 mm | - | 2 W/m² | - |
| 1787442670 | 31.67° C | 83% | 1015.8 hPa | 0 mm | - | 3 W/m² | - |
| 1787442366 | 31.67° C | 81% | 1015.7 hPa | 0 mm | - | 4 W/m² | - |
| 1787442065 | 32.22° C | 80% | 1015.6 hPa | 0 mm | - | 3 W/m² | - |
| 1787441761 | 32.22° C | 78% | 1015.5 hPa | 0 mm | - | 4 W/m² | - |
| 1787441456 | 32.22° C | 78% | 1015.7 hPa | 0 mm | - | 4 W/m² | - |
| 1787441151 | 32.78° C | 78% | 1015.3 hPa | 0 mm | - | 5 W/m² | - |
| 1787440847 | 32.78° C | 77% | 1015.4 hPa | 0 mm | - | 4 W/m² | - |
| 1787440547 | 32.78° C | 78% | 1015.8 hPa | 0 mm | - | 5 W/m² | - |
| 1787440243 | 32.78° C | 74% | 1015.6 hPa | 0 mm | - | 5 W/m² | - |
| 1787439939 | 33.33° C | 75% | 1015.7 hPa | 0 mm | - | 5 W/m² | - |
| 1787439635 | 33.33° C | 74% | 1015.7 hPa | 0 mm | - | 5 W/m² | - |
| 1787439331 | 33.33° C | 76% | 1015.6 hPa | 0 mm | - | 6 W/m² | - |
| 1787439026 | 33.33° C | 74% | 1015.4 hPa | 0 mm | - | 6 W/m² | - |
* Rain latest hour (hover to see other rain measurements)
** Current wind speed in m/s (hover to see current wind gust speed)